Volver al catálogo

STARLINK-5928

ActivoComunicacionesVLEO
NORAD 55958·PAYLOAD·🇺🇸 United States

Lanzado Mar 17, 2023 desde Vandenberg Space Force Base

Loading…

Próximos Pases (próximas 24 horas)

TLE

ActualizadoSource: CelesTrak SupGP

Época: Sep 15, 2026, 02:27 UTC

1 55958C 23037AW  26258.10256944  .00026832  00000+0  22488-2 0  2585
2 55958  70.0001 146.8898 0002753 270.7623 141.6166 14.98315533    18

Sigue STARLINK-5928 en tiempo real con AllMySat

Download on the App Store